sat.trackr.live / text

‹ back to catalog

STARLINK-33564

NORAD 62286 · 2024-237V

PAYLOAD ACTIVE UNKNOWN

§ Identity

Operator
Country
US
Launch date
2024-12-08
Launch site
AFETR
Launch vehicle
Mass (kg)
RCS (m²)

Purposes: comms

External: N2YO · Heavens-Above · Gunter

§ Orbital elements

Epoch: 2026-09-21T05:11:34.448352Z

Period
94.27 min
Inclination
42.9983°
Eccentricity
0.0001251
Mean motion
15.27582547 rev/d
Perigee alt
482.2 km
Apogee alt
483.9 km
Semi-major
6,861.2 km
B*
1.9918e-4
RAAN
192.2627°
Arg perigee
271.4690°
Mean anomaly
88.6018°
Rev number
10,109

§ Raw data

STARLINK-335641 62286U 24237V   26264.21637093  .00005223  00000+0  19918-3 0  99952 62286  42.9983 192.2627 0001251 271.4690  88.6018 15.27582547101096

JSON: /api/v1/satellites/62286 · /tle

For live sub-satellite position, see the globe view (requires WebGL).

§ Visibility from observer

Set your observer location to see the next 7 days of passes ≥ 10°. The values pass through the URL so the page stays shareable.

No JS? Fill the form by hand. The geolocation button needs JavaScript.